timestamp,wind_dir_avg,wind_spd_max_dir,wind_spd_avg,wind_spd_gust,battery_voltage,lat,long
2018-10-22 00:00:00+00:00,204.0,210.0,19.28,23.31,,47.59359,-54.27349
2018-10-22 00:10:00+00:00,201.0,206.0,20.51,23.6,,47.59359,-54.27349
2018-10-22 00:20:00+00:00,202.0,199.0,17.92,21.26,,47.59359,-54.27349
2018-10-22 00:30:00+00:00,204.0,208.0,20.44,26.27,,47.59359,-54.27349
2018-10-22 00:40:00+00:00,199.0,207.0,18.74,21.95,,47.59359,-54.27349
2018-10-22 00:50:00+00:00,199.0,194.0,18.07,20.65,,47.59359,-54.27349
2018-10-22 01:00:00+00:00,201.0,207.0,17.81,22.14,,47.59359,-54.27349
2018-10-22 01:10:00+00:00,199.0,198.0,19.91,23.86,,47.59359,-54.27349
2018-10-22 01:20:00+00:00,192.0,198.0,18.12,21.5,,47.59359,-54.27349
2018-10-22 01:30:00+00:00,195.0,199.0,16.7,21.81,,47.59359,-54.27349
2018-10-22 01:40:00+00:00,195.0,193.0,22.58,27.0,,47.59359,-54.27349
2018-10-22 01:50:00+00:00,194.0,194.0,19.02,21.52,,47.59359,-54.27349
2018-10-22 02:00:00+00:00,196.0,188.0,23.84,28.67,,47.59359,-54.27349
2018-10-22 02:10:00+00:00,207.0,213.0,22.64,26.1,,47.59359,-54.27349
2018-10-22 02:20:00+00:00,206.0,200.0,23.95,28.43,,47.59359,-54.27349
2018-10-22 02:30:00+00:00,209.0,206.0,23.5,27.09,,47.59359,-54.27349
2018-10-22 02:40:00+00:00,209.0,214.0,23.14,27.21,,47.59359,-54.27349
2018-10-22 02:50:00+00:00,208.0,203.0,21.14,24.74,,47.59359,-54.27349
2018-10-22 03:00:00+00:00,209.0,216.0,19.33,22.89,,47.59359,-54.27349
2018-10-22 03:10:00+00:00,211.0,214.0,19.41,23.77,,47.59359,-54.27349
2018-10-22 03:20:00+00:00,210.0,210.0,17.98,20.61,,47.59359,-54.27349
2018-10-22 03:30:00+00:00,206.0,202.0,22.91,27.22,,47.59359,-54.27349
2018-10-22 03:40:00+00:00,206.0,208.0,20.87,27.86,,47.59359,-54.27349
2018-10-22 03:50:00+00:00,210.0,214.0,20.48,24.47,,47.59359,-54.27349
2018-10-22 04:00:00+00:00,210.0,213.0,23.19,28.54,,47.59359,-54.27349
2018-10-22 04:10:00+00:00,210.0,208.0,21.01,25.42,,47.59359,-54.27349
2018-10-22 04:20:00+00:00,209.0,204.0,20.53,24.48,,47.59359,-54.27349
2018-10-22 04:30:00+00:00,210.0,214.0,20.51,24.82,,47.59359,-54.27349
2018-10-22 04:40:00+00:00,207.0,201.0,16.3,19.01,,47.59359,-54.27349
2018-10-22 04:50:00+00:00,208.0,211.0,16.65,20.52,,47.59359,-54.27349
2018-10-22 05:00:00+00:00,202.0,199.0,17.64,21.23,,47.59359,-54.27349
2018-10-22 05:10:00+00:00,206.0,203.0,15.23,18.13,,47.59359,-54.27349
2018-10-22 05:20:00+00:00,213.0,214.0,16.19,19.29,,47.59359,-54.27349
2018-10-22 05:30:00+00:00,215.0,210.0,14.8,16.62,,47.59359,-54.27349
2018-10-22 05:40:00+00:00,214.0,217.0,15.81,18.27,,47.59359,-54.27349
2018-10-22 05:50:00+00:00,197.0,194.0,14.37,16.28,,47.59359,-54.27349
2018-10-22 06:00:00+00:00,213.0,214.0,15.47,17.75,,47.59359,-54.27349
2018-10-22 06:10:00+00:00,209.0,213.0,16.21,18.82,,47.59359,-54.27349
2018-10-22 06:20:00+00:00,211.0,212.0,15.16,16.81,,47.59359,-54.27349
2018-10-22 06:30:00+00:00,215.0,215.0,16.51,19.5,,47.59359,-54.27349
2018-10-22 06:40:00+00:00,212.0,214.0,15.76,20.57,,47.59359,-54.27349
2018-10-22 06:50:00+00:00,216.0,216.0,16.43,18.92,,47.59359,-54.27349
2018-10-22 07:00:00+00:00,217.0,217.0,17.45,20.58,,47.59359,-54.27349
2018-10-22 07:10:00+00:00,226.0,226.0,15.04,17.66,,47.59359,-54.27349
2018-10-22 07:20:00+00:00,225.0,224.0,14.12,15.9,,47.59359,-54.27349
2018-10-22 07:30:00+00:00,218.0,219.0,15.04,17.55,,47.59359,-54.27349
2018-10-22 07:40:00+00:00,221.0,226.0,13.23,14.91,,47.59359,-54.27349
2018-10-22 07:50:00+00:00,229.0,225.0,12.03,13.97,,47.59359,-54.27349
2018-10-22 08:00:00+00:00,223.0,230.0,11.02,12.7,,47.59359,-54.27349
2018-10-22 08:10:00+00:00,220.0,222.0,10.18,11.48,,47.59359,-54.27349
2018-10-22 08:20:00+00:00,227.0,220.0,11.56,13.06,,47.59359,-54.27349
2018-10-22 08:30:00+00:00,239.0,245.0,8.18,10.21,,47.59359,-54.27349
2018-10-22 08:40:00+00:00,231.0,229.0,8.86,10.29,,47.59359,-54.27349
2018-10-22 08:50:00+00:00,232.0,232.0,8.48,9.7,,47.59359,-54.27349
2018-10-22 09:00:00+00:00,236.0,234.0,8.99,9.85,,47.59359,-54.27349
2018-10-22 09:10:00+00:00,237.0,236.0,7.26,8.23,,47.59359,-54.27349
2018-10-22 09:20:00+00:00,240.0,243.0,6.14,7.15,,47.59359,-54.27349
2018-10-22 09:30:00+00:00,266.0,272.0,6.1,6.8,,47.59359,-54.27349
2018-10-22 09:40:00+00:00,316.0,311.0,4.69,5.18,,47.59359,-54.27349
2018-10-22 09:50:00+00:00,330.0,338.0,6.91,7.82,,47.59359,-54.27349
2018-10-22 10:00:00+00:00,338.0,342.0,9.61,11.83,,47.59359,-54.27349
2018-10-22 10:10:00+00:00,334.0,336.0,11.38,13.77,,47.59359,-54.27349
2018-10-22 10:20:00+00:00,357.0,0.0,8.88,10.18,,47.59359,-54.27349
2018-10-22 10:30:00+00:00,2.0,4.0,9.36,10.09,,47.59359,-54.27349
2018-10-22 10:40:00+00:00,3.0,358.0,9.29,11.32,,47.59359,-54.27349
2018-10-22 10:50:00+00:00,5.0,2.0,8.65,9.61,,47.59359,-54.27349
2018-10-22 11:00:00+00:00,8.0,10.0,7.99,9.66,,47.59359,-54.27349
2018-10-22 11:10:00+00:00,0.0,359.0,6.34,7.14,,47.59359,-54.27349
2018-10-22 11:20:00+00:00,359.0,358.0,7.42,7.85,,47.59359,-54.27349
2018-10-22 11:30:00+00:00,8.0,7.0,6.02,6.88,,47.59359,-54.27349
2018-10-22 11:40:00+00:00,22.0,32.0,4.55,5.45,,47.59359,-54.27349
2018-10-22 11:50:00+00:00,13.0,16.0,5.55,6.51,,47.59359,-54.27349
2018-10-22 12:00:00+00:00,4.0,8.0,5.91,6.66,,47.59359,-54.27349
2018-10-22 12:10:00+00:00,355.0,352.0,5.6,6.13,,47.59359,-54.27349
2018-10-22 12:20:00+00:00,352.0,359.0,5.84,6.83,,47.59359,-54.27349
2018-10-22 12:30:00+00:00,0.0,353.0,7.31,8.03,,47.59359,-54.27349
2018-10-22 12:40:00+00:00,6.0,5.0,6.21,7.29,,47.59359,-54.27349
2018-10-22 12:50:00+00:00,3.0,3.0,5.0,5.99,,47.59359,-54.27349
2018-10-22 13:00:00+00:00,1.0,2.0,4.97,5.56,,47.59359,-54.27349
2018-10-22 13:10:00+00:00,3.0,1.0,5.95,7.0,,47.59359,-54.27349
2018-10-22 13:20:00+00:00,11.0,8.0,6.79,7.71,,47.59359,-54.27349
2018-10-22 13:30:00+00:00,358.0,354.0,5.72,6.23,,47.59359,-54.27349
2018-10-22 13:40:00+00:00,8.0,7.0,6.25,7.12,,47.59359,-54.27349
2018-10-22 13:50:00+00:00,1.0,0.0,6.08,6.54,,47.59359,-54.27349
2018-10-22 14:00:00+00:00,1.0,2.0,5.02,5.89,,47.59359,-54.27349
2018-10-22 14:10:00+00:00,351.0,353.0,4.67,5.6,,47.59359,-54.27349
2018-10-22 14:20:00+00:00,7.0,7.0,4.2,4.83,,47.59359,-54.27349
2018-10-22 14:30:00+00:00,358.0,1.0,5.54,6.75,,47.59359,-54.27349
2018-10-22 14:40:00+00:00,10.0,12.0,4.97,5.88,,47.59359,-54.27349
2018-10-22 14:50:00+00:00,15.0,13.0,4.43,5.01,,47.59359,-54.27349
2018-10-22 15:00:00+00:00,19.0,17.0,4.98,5.45,,47.59359,-54.27349
2018-10-22 15:10:00+00:00,50.0,51.0,3.87,4.69,,47.59359,-54.27349
2018-10-22 15:20:00+00:00,64.0,59.0,2.47,3.04,,47.59359,-54.27349
2018-10-22 15:30:00+00:00,34.0,40.0,1.9,2.28,,47.59359,-54.27349
2018-10-22 15:40:00+00:00,11.0,3.0,1.63,1.99,,47.59359,-54.27349
2018-10-22 15:50:00+00:00,348.0,347.0,2.99,3.5,,47.59359,-54.27349
2018-10-22 16:00:00+00:00,334.0,334.0,3.19,3.77,,47.59359,-54.27349
2018-10-22 16:10:00+00:00,303.0,292.0,9.28,13.22,,47.59359,-54.27349
2018-10-22 16:20:00+00:00,320.0,314.0,8.16,8.97,,47.59359,-54.27349
2018-10-22 16:30:00+00:00,320.0,319.0,6.72,7.43,,47.59359,-54.27349
2018-10-22 16:40:00+00:00,323.0,321.0,6.65,7.2,,47.59359,-54.27349
2018-10-22 16:50:00+00:00,325.0,327.0,6.29,7.05,,47.59359,-54.27349
2018-10-22 17:00:00+00:00,320.0,310.0,7.73,9.28,,47.59359,-54.27349
2018-10-22 17:10:00+00:00,319.0,321.0,7.98,9.0,,47.59359,-54.27349
2018-10-22 17:20:00+00:00,326.0,322.0,7.76,9.05,,47.59359,-54.27349
2018-10-22 17:30:00+00:00,336.0,338.0,6.83,7.55,,47.59359,-54.27349
2018-10-22 17:40:00+00:00,324.0,322.0,5.87,6.9,,47.59359,-54.27349
2018-10-22 17:50:00+00:00,322.0,316.0,5.72,6.64,,47.59359,-54.27349
2018-10-22 18:00:00+00:00,317.0,310.0,4.24,5.2,,47.59359,-54.27349
2018-10-22 18:10:00+00:00,321.0,324.0,6.04,7.29,,47.59359,-54.27349
2018-10-22 18:20:00+00:00,318.0,325.0,3.85,4.96,,47.59359,-54.27349
2018-10-22 18:30:00+00:00,331.0,323.0,3.71,4.42,,47.59359,-54.27349
2018-10-22 18:40:00+00:00,320.0,325.0,3.19,4.0,,47.59359,-54.27349
2018-10-22 18:50:00+00:00,321.0,328.0,3.02,3.45,,47.59359,-54.27349
2018-10-22 19:00:00+00:00,311.0,315.0,3.62,4.34,,47.59359,-54.27349
2018-10-22 19:10:00+00:00,300.0,284.0,4.27,5.0,,47.59359,-54.27349
2018-10-22 19:20:00+00:00,291.0,281.0,4.23,5.05,,47.59359,-54.27349
2018-10-22 19:30:00+00:00,287.0,282.0,4.96,5.7,,47.59359,-54.27349
2018-10-22 19:40:00+00:00,278.0,272.0,7.6,8.76,,47.59359,-54.27349
2018-10-22 19:50:00+00:00,290.0,291.0,9.89,11.42,,47.59359,-54.27349
2018-10-22 20:00:00+00:00,291.0,296.0,7.3,8.38,,47.59359,-54.27349
2018-10-22 20:10:00+00:00,274.0,273.0,7.1,7.98,,47.59359,-54.27349
2018-10-22 20:20:00+00:00,285.0,289.0,8.85,10.14,,47.59359,-54.27349
2018-10-22 20:30:00+00:00,283.0,286.0,8.75,10.02,,47.59359,-54.27349
2018-10-22 20:40:00+00:00,286.0,283.0,9.61,10.56,,47.59359,-54.27349
2018-10-22 20:50:00+00:00,277.0,281.0,10.13,11.5,,47.59359,-54.27349
2018-10-22 21:00:00+00:00,272.0,272.0,8.0,9.42,,47.59359,-54.27349
2018-10-22 21:10:00+00:00,278.0,272.0,8.44,9.33,,47.59359,-54.27349
2018-10-22 21:20:00+00:00,271.0,281.0,8.77,9.96,,47.59359,-54.27349
2018-10-22 21:30:00+00:00,280.0,285.0,9.96,11.22,,47.59359,-54.27349
2018-10-22 21:40:00+00:00,270.0,274.0,9.54,10.99,,47.59359,-54.27349
2018-10-22 21:50:00+00:00,273.0,264.0,8.23,9.37,,47.59359,-54.27349
2018-10-22 22:00:00+00:00,272.0,274.0,7.91,9.09,,47.59359,-54.27349
2018-10-22 22:10:00+00:00,261.0,255.0,9.51,10.54,,47.59359,-54.27349
2018-10-22 22:20:00+00:00,269.0,270.0,8.87,9.73,,47.59359,-54.27349
2018-10-22 22:30:00+00:00,269.0,266.0,8.25,10.14,,47.59359,-54.27349
2018-10-22 22:40:00+00:00,271.0,267.0,8.82,10.15,,47.59359,-54.27349
2018-10-22 22:50:00+00:00,273.0,267.0,9.37,10.94,,47.59359,-54.27349
2018-10-22 23:00:00+00:00,275.0,274.0,7.23,8.31,,47.59359,-54.27349
2018-10-22 23:10:00+00:00,281.0,282.0,8.04,9.1,,47.59359,-54.27349
2018-10-22 23:20:00+00:00,261.0,262.0,8.82,10.22,,47.59359,-54.27349
2018-10-22 23:30:00+00:00,262.0,269.0,10.92,13.04,,47.59359,-54.27349
2018-10-22 23:40:00+00:00,269.0,274.0,10.99,12.79,,47.59359,-54.27349
2018-10-22 23:50:00+00:00,268.0,269.0,8.03,10.0,,47.59359,-54.27349
